Showing default

HULIANWANG DIGUI-34, 64287

Orbit data source: Space-Track

HULIANWANG DIGUI-34, 64287 is a payload satellite owned by Zhongguo Xingwang (CN) in LEO that was launched on Thu, 05 Jun 2025 UTC via a CHANG ZHENG 6A launch vehicle from the Taiyaun Space Center, China (TSC). Payload-class satellites include a variety of spacecraft equipped with specific instruments for various scientific and technological missions. These include communications satellites like Starlink; space stations such as the ISS; scientific satellites like the Hubble; Earth observation satellites from companies like Planet Labs, Umbra, and HawkEye 360; GPS; miniature CubeSats for education and research; and military/defense satellites.

Loading next visibility...
Identifier
64287, 2025-121E
Orbit
LEO
Country
Flag of CNCN / PRC
Related business
Manufacturer
SECM
Mission
Operational Civil Communications
Bus & Motor
XINGWANG S, Unknown motor
Mass
~800 kg wet, ~800 kg dry
Launch date (UTC)
2025-06-05 (1 year ago)
Launch vehicle
CHANG ZHENG 6A
Launch site
Taiyaun Space Center, China (TSC)
Object type
Payload
Rocket body
Debris
Shape & HBR
Box + 2 Pan, 5.0 m
Radar Cross Section
5.935 m², Large (>1 m²)

Expand to show TLE details & history
Last TLE update: 9 hours ago

TLE from 9 hours ago
0 HULIANWANG DIGUI-34
1 64287U 25121E   26144.94455594  .00000019  00000-0  10964-4 0  9994
2 64287  86.5007  21.3691 0001750  98.6094 261.5239 13.24408179 47082
Epoch: 2026-05-24T22:40Z
TLE epoch observation values (Epoch: 2026-05-24T22:40:09.633Z)
Latitude
0.00006°
Longitude
158.78953°
Altitude
1,171.018 km
Speed
7.268 km/s
True Right ascension
01h 25m 28s
True Declination
0° 00' 00"
Sunlit
Object was in daylight at epoch
Visualization orbit readout
Latitude
Unknown
Longitude
Unknown
Altitude
Unknown
Speed
Unknown
Apparent Right ascension
Unknown
Apparent Declination
Unknown
Sunlit
N/A
Visualization observer readout
Local Sidereal Time
16:38:01
Azimuth
Unknown
Elevation
Unknown
Doppler factor
Unknown
Orbital elements
Apogee altitude
1,166.369 km
Perigee altitude
1,163.729 km
Semi-major axis
7,543.186 km
Eccentricity
0.00018
Inclination
86.5007°
RAAN
21.3691°
Arg. of periapsis
98.6094°
True anomaly
261.50407°
Mean anomaly
261.5239°
Eccentric anomaly
261.51398°
Mean motion
3.31292 °/min
Orbital period
108.67 mins
BSTAR
0.000010964
Loading maneuver chart data...
Computing Atmospheric mass density...
Loading historical data...
Loading historical data...
Loading historical data...
Loading historical data...
Loading historical data...
Loading historical data...
Loading historical data...

Documentation

Showing up to 5 results
|